FDX1208 KBHM-KSAV

Flight info

Callsign FDX1208
Flight time 0h 42m
Altitude 35000
Route DCT CHEHA DCT DBN DCT LOTTS DCT
Aircraft A306/H-SDE3FGHIRWY/LB1

Departure

Time 2026-05-05 19:12
Airport Birmingham-Shuttlesworth International Airport (KBHM)

Arrival

Time 2026-05-05 19:54
Airport Savannah Hilton Head International Airport (KSAV)
Time Latitude Longitude Altitude Speed Heading
2026-05-05 18:45 33.55386 -86.76737 614 ft 0 kts 181°
2026-05-05 19:01 33.55409 -86.76737 621 ft 4 kts 180°
2026-05-05 19:01 33.55433 -86.76737 624 ft 4 kts 191°
2026-05-05 19:02 33.55452 -86.76727 626 ft 4 kts 246°
2026-05-05 19:02 33.55456 -86.76697 627 ft 3 kts 271°
2026-05-05 19:02 33.55456 -86.76687 626 ft 0 kts 271°
2026-05-05 19:04 33.55457 -86.76723 632 ft 7 kts 271°
2026-05-05 19:04 33.55472 -86.76801 624 ft 12 kts 306°
2026-05-05 19:05 33.55556 -86.76805 625 ft 14 kts 37°
2026-05-05 19:05 33.55614 -86.76718 621 ft 12 kts 55°
2026-05-05 19:05 33.55667 -86.76626 620 ft 15 kts 55°
2026-05-05 19:05 33.55729 -86.76519 623 ft 15 kts 55°
2026-05-05 19:06 33.55786 -86.76420 625 ft 14 kts 56°
2026-05-05 19:06 33.55837 -86.76331 617 ft 12 kts 56°
2026-05-05 19:06 33.55883 -86.76252 627 ft 13 kts 55°
2026-05-05 19:06 33.55939 -86.76155 623 ft 15 kts 56°
2026-05-05 19:07 33.56003 -86.76043 625 ft 17 kts 54°
2026-05-05 19:07 33.56051 -86.75960 618 ft 19 kts 56°
2026-05-05 19:07 33.56155 -86.75779 622 ft 21 kts 55°
2026-05-05 19:07 33.56242 -86.75628 628 ft 23 kts 56°
2026-05-05 19:08 33.56337 -86.75466 621 ft 25 kts 55°
2026-05-05 19:08 33.56433 -86.75297 624 ft 24 kts 55°
2026-05-05 19:08 33.56525 -86.75139 622 ft 22 kts 55°
2026-05-05 19:08 33.56600 -86.74989 615 ft 20 kts 78°
2026-05-05 19:09 33.56618 -86.74839 622 ft 17 kts 64°
2026-05-05 19:09 33.56680 -86.74726 625 ft 15 kts 55°
2026-05-05 19:09 33.56738 -86.74627 629 ft 14 kts 55°
2026-05-05 19:09 33.56791 -86.74534 617 ft 13 kts 55°
2026-05-05 19:10 33.56845 -86.74441 618 ft 15 kts 55°
2026-05-05 19:10 33.56909 -86.74329 618 ft 19 kts 55°
2026-05-05 19:10 33.56993 -86.74184 621 ft 24 kts 55°
2026-05-05 19:10 33.57091 -86.74014 617 ft 24 kts 56°
2026-05-05 19:11 33.57184 -86.73862 619 ft 19 kts 39°
2026-05-05 19:11 33.57291 -86.73887 625 ft 15 kts 325°
2026-05-05 19:11 33.57313 -86.73974 621 ft 12 kts 242°
2026-05-05 19:11 33.57265 -86.74059 628 ft 28 kts 235°
2026-05-05 19:12 33.57029 -86.74470 625 ft 91 kts 235°
2026-05-05 19:12 33.56561 -86.75282 620 ft 145 kts 236°
2026-05-05 19:12 33.55902 -86.76413 897 ft 172 kts 233°
2026-05-05 19:12 33.55239 -86.77604 1881 ft 172 kts 231°
2026-05-05 19:13 33.54577 -86.78830 2725 ft 181 kts 233°
2026-05-05 19:13 33.53843 -86.80150 3310 ft 202 kts 232°
2026-05-05 19:13 33.52910 -86.81557 3657 ft 230 kts 227°
2026-05-05 19:13 33.51853 -86.83111 4217 ft 246 kts 229°
2026-05-05 19:14 33.50676 -86.84602 5128 ft 248 kts 218°
2026-05-05 19:14 33.49174 -86.85619 6030 ft 251 kts 200°
2026-05-05 19:14 33.47454 -86.85854 6907 ft 259 kts 177°
2026-05-05 19:14 33.45701 -86.85069 7634 ft 278 kts 149°
2026-05-05 19:15 33.44460 -86.83259 8320 ft 298 kts 118°
2026-05-05 19:15 33.43822 -86.80855 9051 ft 309 kts 105°
2026-05-05 19:15 33.43482 -86.78285 9763 ft 316 kts 98°
2026-05-05 19:15 33.43284 -86.75625 10370 ft 326 kts 96°
2026-05-05 19:16 33.43107 -86.72840 10688 ft 345 kts 96°
2026-05-05 19:16 33.42903 -86.69914 10991 ft 361 kts 96°
2026-05-05 19:16 33.42646 -86.66855 11263 ft 377 kts 97°
2026-05-05 19:16 33.42337 -86.63670 11537 ft 391 kts 98°
2026-05-05 19:17 33.41990 -86.60389 11807 ft 404 kts 98°
2026-05-05 19:17 33.41621 -86.57005 12082 ft 415 kts 98°
2026-05-05 19:17 33.41237 -86.53546 12445 ft 423 kts 98°
2026-05-05 19:17 33.40848 -86.50071 12899 ft 427 kts 98°
2026-05-05 19:18 33.40452 -86.46532 13433 ft 430 kts 98°
2026-05-05 19:18 33.40056 -86.42974 13896 ft 434 kts 98°
2026-05-05 19:18 33.39658 -86.39385 14339 ft 437 kts 98°
2026-05-05 19:18 33.39258 -86.35771 14803 ft 439 kts 98°
2026-05-05 19:19 33.38856 -86.32126 15267 ft 442 kts 98°
2026-05-05 19:19 33.38451 -86.28471 15695 ft 445 kts 98°
2026-05-05 19:19 33.38044 -86.24795 16114 ft 448 kts 97°
2026-05-05 19:19 33.37590 -86.21087 16542 ft 451 kts 101°
2026-05-05 19:20 33.36908 -86.17412 16953 ft 453 kts 104°
2026-05-05 19:20 33.36157 -86.13794 17347 ft 456 kts 105°
2026-05-05 19:20 33.35343 -86.10110 17728 ft 459 kts 105°
2026-05-05 19:20 33.34498 -86.06404 18097 ft 462 kts 105°
2026-05-05 19:21 33.33644 -86.02694 18438 ft 465 kts 105°
2026-05-05 19:21 33.32782 -85.98954 18705 ft 468 kts 105°
2026-05-05 19:21 33.31914 -85.95183 18991 ft 471 kts 105°
2026-05-05 19:21 33.31046 -85.91394 19255 ft 474 kts 105°
2026-05-05 19:22 33.30173 -85.87587 19519 ft 477 kts 105°
2026-05-05 19:22 33.29297 -85.83749 19787 ft 479 kts 105°
2026-05-05 19:22 33.28416 -85.79898 20038 ft 482 kts 105°
2026-05-05 19:22 33.27527 -85.76014 20286 ft 485 kts 105°
2026-05-05 19:23 33.26646 -85.72167 20501 ft 488 kts 105°
2026-05-05 19:23 33.25745 -85.68245 20740 ft 490 kts 105°
2026-05-05 19:23 33.24827 -85.64260 20981 ft 493 kts 105°
2026-05-05 19:23 33.23924 -85.60347 21236 ft 494 kts 105°
2026-05-05 19:24 33.23007 -85.56378 21464 ft 497 kts 105°
2026-05-05 19:24 33.22083 -85.52385 21686 ft 499 kts 105°
2026-05-05 19:24 33.21155 -85.48380 21890 ft 502 kts 105°
2026-05-05 19:24 33.20221 -85.44358 22069 ft 504 kts 105°
2026-05-05 19:25 33.19280 -85.40310 22278 ft 507 kts 105°
2026-05-05 19:25 33.18333 -85.36248 22479 ft 509 kts 105°
2026-05-05 19:25 33.17380 -85.32165 22691 ft 511 kts 105°
2026-05-05 19:25 33.16435 -85.28121 22884 ft 512 kts 105°
2026-05-05 19:26 33.15473 -85.24004 23081 ft 515 kts 105°
2026-05-05 19:26 33.14509 -85.19884 23267 ft 517 kts 105°
2026-05-05 19:26 33.13536 -85.15731 23449 ft 519 kts 105°
2026-05-05 19:26 33.12557 -85.11567 23618 ft 521 kts 105°
2026-05-05 19:27 33.11584 -85.07442 23786 ft 522 kts 105°
2026-05-05 19:27 33.10590 -85.03225 24049 ft 521 kts 105°
2026-05-05 19:27 33.09620 -84.99123 24294 ft 520 kts 105°
2026-05-05 19:27 33.08638 -84.94978 24541 ft 520 kts 105°
2026-05-05 19:28 33.07654 -84.90825 24783 ft 520 kts 105°
2026-05-05 19:28 33.06670 -84.86681 25037 ft 519 kts 105°
2026-05-05 19:28 33.05685 -84.82535 25298 ft 519 kts 105°
2026-05-05 19:28 33.04698 -84.78392 25573 ft 518 kts 105°
2026-05-05 19:29 33.03712 -84.74259 25844 ft 518 kts 105°
2026-05-05 19:29 33.02726 -84.70131 26108 ft 518 kts 105°
2026-05-05 19:29 33.01740 -84.66013 26387 ft 517 kts 105°
2026-05-05 19:29 33.00753 -84.61891 26685 ft 517 kts 105°
2026-05-05 19:30 32.99765 -84.57777 26969 ft 516 kts 105°
2026-05-05 19:30 32.98774 -84.53660 27256 ft 516 kts 105°
2026-05-05 19:30 32.97797 -84.49605 27534 ft 516 kts 105°
2026-05-05 19:30 32.96806 -84.45495 27828 ft 516 kts 105°
2026-05-05 19:31 32.95813 -84.41384 28161 ft 515 kts 105°
2026-05-05 19:31 32.94821 -84.37289 28471 ft 514 kts 105°
2026-05-05 19:31 32.93828 -84.33191 28778 ft 514 kts 105°
2026-05-05 19:31 32.92836 -84.29107 29092 ft 514 kts 105°
2026-05-05 19:32 32.91840 -84.25012 29414 ft 513 kts 105°
2026-05-05 19:32 32.90860 -84.20986 29728 ft 513 kts 105°
2026-05-05 19:32 32.89867 -84.16913 30040 ft 512 kts 105°
2026-05-05 19:32 32.88872 -84.12838 30320 ft 512 kts 105°
2026-05-05 19:33 32.87884 -84.08799 30769 ft 507 kts 105°
2026-05-05 19:33 32.86900 -84.04784 31134 ft 504 kts 105°
2026-05-05 19:33 32.85917 -84.00776 31407 ft 504 kts 104°
2026-05-05 19:33 32.84932 -83.96770 31654 ft 504 kts 104°
2026-05-05 19:34 32.83947 -83.92769 31901 ft 505 kts 104°
2026-05-05 19:34 32.82961 -83.88765 32155 ft 505 kts 104°
2026-05-05 19:34 32.81967 -83.84739 32374 ft 507 kts 104°
2026-05-05 19:35 32.79967 -83.76646 32636 ft 514 kts 104°
2026-05-05 19:35 32.78953 -83.72557 32759 ft 517 kts 104°
2026-05-05 19:35 32.77934 -83.68453 32891 ft 519 kts 104°
2026-05-05 19:35 32.76919 -83.64376 33018 ft 522 kts 104°
2026-05-05 19:36 32.75882 -83.60212 33055 ft 527 kts 104°
2026-05-05 19:36 32.73774 -83.51764 33056 ft 538 kts 104°
2026-05-05 19:37 32.71625 -83.43186 33046 ft 544 kts 104°
2026-05-05 19:37 32.69451 -83.34547 33042 ft 545 kts 104°
2026-05-05 19:38 32.67291 -83.25989 33050 ft 544 kts 104°
2026-05-05 19:38 32.65115 -83.17395 33056 ft 544 kts 104°
2026-05-05 19:39 32.62932 -83.08794 33062 ft 544 kts 104°
2026-05-05 19:39 32.60741 -83.00188 33057 ft 544 kts 104°
2026-05-05 19:40 32.58545 -82.91588 33053 ft 544 kts 104°
2026-05-05 19:40 32.56347 -82.82993 33055 ft 544 kts 104°
2026-05-05 19:41 32.54304 -82.74359 33052 ft 544 kts 102°
2026-05-05 19:41 32.52358 -82.65745 32560 ft 543 kts 103°
2026-05-05 19:41 32.51173 -82.61479 31760 ft 546 kts 108°
2026-05-05 19:42 32.49852 -82.57260 31028 ft 545 kts 109°
2026-05-05 19:42 32.48508 -82.53068 30315 ft 544 kts 109°
2026-05-05 19:42 32.47158 -82.48884 29472 ft 542 kts 110°
2026-05-05 19:42 32.45807 -82.44712 28523 ft 543 kts 110°
2026-05-05 19:43 32.44453 -82.40542 27559 ft 543 kts 110°
2026-05-05 19:43 32.43098 -82.36373 26794 ft 539 kts 110°
2026-05-05 19:43 32.41756 -82.32254 26131 ft 533 kts 110°
2026-05-05 19:43 32.40448 -82.28241 25501 ft 527 kts 110°
2026-05-05 19:44 32.39136 -82.24223 24857 ft 521 kts 110°
2026-05-05 19:44 32.37838 -82.20251 24230 ft 510 kts 111°
2026-05-05 19:44 32.36578 -82.16403 23294 ft 494 kts 111°
2026-05-05 19:44 32.35349 -82.12653 22021 ft 484 kts 111°
2026-05-05 19:45 32.34143 -82.08976 20765 ft 475 kts 111°
2026-05-05 19:45 32.32958 -82.05371 19582 ft 465 kts 111°
2026-05-05 19:45 32.31798 -82.01844 18439 ft 455 kts 111°
2026-05-05 19:45 32.30664 -81.98398 17278 ft 444 kts 111°
2026-05-05 19:46 32.29554 -81.95030 16150 ft 434 kts 111°
2026-05-05 19:46 32.28489 -81.91797 15173 ft 422 kts 111°
2026-05-05 19:46 32.27426 -81.88573 14226 ft 410 kts 111°
2026-05-05 19:46 32.26417 -81.85518 13337 ft 398 kts 112°
2026-05-05 19:47 32.25424 -81.82518 12443 ft 386 kts 112°
2026-05-05 19:47 32.24459 -81.79604 11567 ft 376 kts 112°
2026-05-05 19:47 32.23521 -81.76773 11031 ft 360 kts 112°
2026-05-05 19:47 32.22640 -81.74104 10709 ft 338 kts 112°
2026-05-05 19:48 32.21805 -81.71586 10356 ft 321 kts 113°
2026-05-05 19:48 32.21004 -81.69158 9817 ft 313 kts 113°
2026-05-05 19:48 32.20215 -81.66792 9197 ft 307 kts 113°
2026-05-05 19:48 32.19439 -81.64477 8680 ft 298 kts 113°
2026-05-05 19:49 32.18693 -81.62244 8253 ft 287 kts 113°
2026-05-05 19:49 32.18213 -81.60802 7838 ft 285 kts 113°
2026-05-05 19:49 32.17243 -81.57901 7013 ft 282 kts 113°
2026-05-05 19:49 32.16530 -81.55762 6456 ft 277 kts 114°
2026-05-05 19:50 32.15832 -81.53694 5861 ft 273 kts 114°
2026-05-05 19:50 32.15139 -81.51621 5249 ft 271 kts 113°
2026-05-05 19:50 32.14460 -81.49569 4747 ft 265 kts 113°
2026-05-05 19:50 32.13807 -81.47587 4322 ft 253 kts 114°
2026-05-05 19:51 32.13247 -81.45689 3966 ft 239 kts 105°
2026-05-05 19:51 32.13060 -81.43776 3600 ft 231 kts 92°
2026-05-05 19:51 32.13067 -81.41907 3266 ft 223 kts 91°
2026-05-05 19:51 32.13049 -81.40135 3006 ft 210 kts 93°
2026-05-05 19:52 32.13028 -81.38431 2736 ft 205 kts 92°
2026-05-05 19:52 32.13013 -81.36779 2514 ft 198 kts 94°
2026-05-05 19:52 32.12994 -81.35177 2248 ft 190 kts 94°
2026-05-05 19:52 32.12970 -81.33636 2000 ft 188 kts 92°
2026-05-05 19:53 32.12961 -81.32115 1761 ft 183 kts 94°
2026-05-05 19:53 32.12958 -81.30625 1499 ft 180 kts 94°
2026-05-05 19:53 32.12943 -81.29161 1284 ft 176 kts 95°
2026-05-05 19:53 32.12929 -81.27746 1055 ft 167 kts 95°
2026-05-05 19:54 32.12912 -81.26435 960 ft 151 kts 94°
2026-05-05 19:54 32.12895 -81.25274 920 ft 135 kts 95°
2026-05-05 19:54 32.12867 -81.24241 901 ft 119 kts 98°
2026-05-05 19:54 32.12967 -81.23403 36 ft 46 kts 323°
2026-05-05 19:55 32.12985 -81.23367 30 ft 0 kts 46°